Flag for U.S.A. Weather past 2 weeks in West Covina, California, U.S.A.

57 °F


Feels Like: 57 °F
Forecast: 40 / 62 °F
Wind: 3 mph from South

Location: Fullerton Municipal Airport

Current Time: Nov 27, 2015 at 6:52:27 PM

Latest Report: Nov 27, 2015 at 5:53 PM

Visibility: 10 mi

Pressure: 30.01 "Hg

Humidity: 64%

Dew point: 45 °F

Location of West CovinaLocation

Historic Weather in West Covina — Graph


West Covina temperature yesterday

Maximum temperature yesterday: 63 °F (at 12:53 PM)
Minimum temperature yesterday: 50 °F (at 1:53 AM)
Average temperature yesterday: 56 °F

Past Weeks' High & Low Weather Summary

High89 °F (Nov 21, 2:53 PM)90% (Nov 25, 1:53 AM)30.17 "Hg (Nov 25, 1:53 AM)
Low41 °F (Nov 17, 5:53 AM)7% (Nov 22, 9:53 AM)29.84 "Hg (Nov 25, 2:53 AM)
Average62 °F45%29.95 "Hg
* Reported Nov 12 5:53 PM — Nov 27 5:53 PM, West Covina, Weather by CustomWeather, © 2015

Note: Actual official high and low records may vary slightly from our data, if they occured in-between our weather recording intervals... More about our weather records


West Covina weather history for previous 24 hours

Time TempWeatherWind HumidityBarometerVisibility
5:53 PM
Fri, Nov 27
57 °FClear.3 mph64%30.01 "Hg10 mi
4:53 PM59 °FClear.5 mph56%29.99 "Hg10 mi
3:53 PM61 °FSunny.8 mph46%29.97 "Hg10 mi
2:53 PM65 °FSunny.5 mph22%29.96 "Hg10 mi
1:53 PM65 °FSunny.12 mph23%29.96 "Hg10 mi
12:53 PM64 °FPartly sunny.9 mph26%29.97 "Hg10 mi
11:53 AM63 °FPassing clouds.10 mph27%29.99 "Hg10 mi
10:53 AM61 °FPartly sunny.12 mph29%30.02 "Hg10 mi
9:53 AM58 °FScattered clouds.9 mph32%30.03 "Hg10 mi
8:53 AM55 °FPartly sunny.No wind62%30.02 "Hg10 mi
7:53 AM52 °FPartly sunny.3 mph72%30.01 "Hg10 mi
6:53 AM52 °FPartly sunny.7 mph69%30.00 "Hg10 mi
5:53 AM51 °FMostly cloudy.6 mph69%29.98 "Hg10 mi
4:53 AM50 °FPassing clouds.5 mph74%29.98 "Hg10 mi
3:53 AM52 °FPassing clouds.6 mph69%29.97 "Hg10 mi
2:53 AM52 °FMostly cloudy.5 mph72%29.97 "Hg10 mi
1:53 AM51 °FPassing clouds.6 mph71%29.98 "Hg10 mi
12:53 AM54 °FPassing clouds.5 mph64%29.97 "Hg10 mi
11:53 PM
Thu, Nov 26
54 °FOvercast.5 mph69%29.98 "Hg10 mi
10:53 PM54 °FPassing clouds.6 mph67%29.99 "Hg10 mi
9:53 PM51 °FClear.5 mph71%29.99 "Hg10 mi
8:53 PM56 °FPassing clouds.3 mph60%29.99 "Hg10 mi
7:53 PM57 °FMostly cloudy.No wind55%29.98 "Hg10 mi
6:53 PM57 °FPassing clouds.No wind55%29.97 "Hg10 mi
Weather by CustomWeather, © 2015

See weather overviewHow to use our weather pages